EW5836 Weather Reports


Display with metric or nautical units.
time (UTC)temp
F
wind
direction
speed
MPH
gust
MPH
rain 1hr
in
rain 24hr
in
rain mn
in
humidity
%
barometer
mb
20260505164040 57 147 0.0 0.0 0.00 1.50 0.30 92 1013.2
20260505163543 57 147 0.0 5.0 0.00 1.50 0.30 91 1013.2
20260505163035 57 147 0.0 6.0 0.00 1.50 0.30 90 1013.2
20260505162558 58 153 2.0 6.0 0.00 1.50 0.30 89 1013.3
20260505162044 58 160 0.0 0.0 0.00 1.50 0.30 88 1013.2
20260505161549 58 161 0.0 0.0 0.00 1.50 0.30 87 1013.2
20260505161057 58 161 0.0 0.0 0.00 1.50 0.30 86 1013.1
20260505160543 58 161 0.0 0.0 0.00 1.50 0.30 85 1013.0
20260505153044 59 161 0.0 0.0 0.00 1.50 0.30 83 1013.2
20260505152549 59 161 0.0 0.0 0.00 1.50 0.30 83 1013.2
20260505152040 59 161 0.0 0.0 0.00 1.50 0.30 83 1013.2
20260505151545 59 161 0.0 0.0 0.00 1.50 0.30 83 1013.2
20260505151031 59 161 0.0 0.0 0.00 1.50 0.30 84 1013.2
20260505150535 59 161 0.0 0.0 0.00 1.50 0.30 83 1013.2
20260505150105 59 161 0.0 0.0 0.00 1.50 0.30 83 1013.2
20260505140556 59 161 0.0 3.0 0.00 1.50 0.30 83 1013.5
20260505124557 57 170 0.0 0.0 0.00 1.50 0.30 90 1014.0
20260505124106 57 170 0.0 0.0 0.00 1.50 0.30 90 1014.0
20260505123549 57 170 0.0 0.0 0.00 1.50 0.30 91 1013.9
20260505123038 57 170 0.0 0.0 0.00 1.50 0.30 91 1014.0
20260505122542 57 170 0.0 0.0 0.00 1.50 0.30 91 1014.0
20260505122035 57 170 0.0 0.0 0.00 1.50 0.30 91 1014.0
20260505121539 57 170 0.0 0.0 0.00 1.50 0.30 91 1014.1
20260505121033 56 170 0.0 0.0 0.00 1.50 0.30 91 1014.1
20260505120537 57 170 0.0 0.0 0.00 1.50 0.30 91 1014.1
20260505120049 56 171 0.0 0.0 0.00 1.50 0.30 91 1014.1
20260505115555 56 304 0.0 0.0 0.00 1.50 0.30 91 1014.1
20260505115039 56 304 0.0 0.0 0.00 1.50 0.30 91 1014.1
20260505114543 56 304 0.0 0.0 0.00 1.50 0.30 92 1014.1
20260505114035 56 304 0.0 0.0 0.00 1.50 0.30 92 1014.0
20260505113539 56 304 0.0 0.0 0.00 1.50 0.30 91 1014.1
20260505113032 56 303 0.0 0.0 0.00 1.50 0.30 92 1014.1
20260505112536 56 304 0.0 0.0 0.00 1.50 0.30 91 1014.2
20260505112052 57 304 0.0 0.0 0.00 1.50 0.30 92 1014.1
20260505111535 56 303 0.0 0.0 0.00 1.50 0.30 92 1014.2
20260505111039 56 304 0.0 0.0 0.00 1.50 0.30 92 1014.2
20260505110545 56 250 0.0 0.0 0.00 1.50 0.30 92 1014.3
20260505102038 56 247 0.0 0.0 0.04 1.50 0.30 94 1014.4
20260505101543 56 257 0.0 0.0 0.04 1.50 0.30 94 1014.4
20260505101036 56 264 0.0 0.0 0.04 1.50 0.30 94 1014.4
20260505100542 55 277 0.0 0.0 0.04 1.50 0.30 94 1014.4
20260505100032 55 278 0.0 5.0 0.04 1.50 0.30 94 1014.4
20260505095536 55 241 0.0 8.0 0.04 1.50 0.30 94 1014.5
20260505095044 55 239 1.0 5.0 0.04 1.50 0.30 94 1014.4
20260505094606 55 241 0.0 0.0 0.00 1.46 0.29 94 1014.4
20260505094036 55 253 0.0 0.0 0.00 1.46 0.29 94 1014.4
20260505093541 55 254 0.0 0.0 0.00 1.46 0.29 94 1014.4
20260505093032 55 270 0.0 0.0 0.00 1.46 0.29 94 1014.5
20260505092537 55 234 0.0 0.0 0.00 1.46 0.29 94 1014.5
20260505092049 55 245 0.0 3.0 0.00 1.46 0.29 95 1014.5
20260505091543 55 253 0.0 4.0 0.00 1.46 0.29 95 1014.4
20260505091034 55 247 0.0 0.0 0.00 1.46 0.29 95 1014.4
20260505090600 55 246 0.0 4.0 0.00 1.46 0.29 95 1014.4
20260505090045 55 265 0.0 4.0 0.00 1.46 0.29 95 1014.4
20260505085549 55 236 0.0 0.0 0.00 1.46 0.29 95 1014.4
20260505085039 55 251 0.0 0.0 0.00 1.46 0.29 95 1014.3
20260505084544 56 262 0.0 0.0 0.00 1.46 0.29 95 1014.2
20260505084035 56 229 0.0 0.0 0.00 1.46 0.29 96 1014.1
20260505083539 56 229 0.0 1.0 0.00 1.46 0.29 96 1014.1
20260505083036 56 229 0.0 1.0 0.04 1.46 0.29 96 1014.1
20260505082537 56 276 0.0 0.0 0.04 1.46 0.29 96 1014.0
20260505082049 56 276 0.0 0.0 0.04 1.46 0.29 96 1014.0
20260505081548 56 276 0.0 0.0 0.04 1.46 0.29 96 1013.9
20260505081037 56 276 0.0 0.0 0.04 1.46 0.29 96 1013.9
20260505080542 56 276 0.0 0.0 0.08 1.46 0.29 96 1013.8
20260505080034 56 276 0.0 0.0 0.08 1.46 0.29 96 1013.8
20260505075538 55 276 0.0 0.0 0.08 1.46 0.29 96 1013.7
20260505075031 55 276 0.0 0.0 0.08 1.46 0.29 96 1013.8
20260505074556 55 276 0.0 0.0 0.08 1.46 0.29 96 1013.7
20260505074043 55 277 0.0 0.0 0.12 1.46 0.29 96 1013.6
20260505073546 55 276 0.0 0.0 0.12 1.46 0.29 96 1013.7
20260505073101 54 276 0.0 0.0 0.08 1.42 0.28 96 1013.7
20260505072544 54 277 0.0 0.0 0.08 1.42 0.28 96 1013.7
20260505072058 54 276 0.0 0.0 0.12 1.42 0.28 96 1013.7
20260505071532 54 276 0.0 0.0 0.12 1.42 0.28 96 1013.7
20260505071046 54 277 0.0 0.0 0.16 1.42 0.28 96 1013.6
20260505070548 54 277 0.0 0.0 0.12 1.38 0.28 96 1013.7
20260505070036 54 277 0.0 0.0 0.16 1.38 0.28 96 1013.6
20260505065540 54 277 0.0 0.0 0.16 1.38 0.28 96 1013.6
20260505065052 54 277 0.0 0.0 0.20 1.38 0.28 96 1013.7
20260505064553 54 277 0.0 0.0 0.28 1.38 0.28 96 1013.6
20260505064041 54 277 0.0 0.0 0.28 1.34 0.27 96 1013.7
20260505063546 54 277 0.0 0.0 0.35 1.34 0.27 96 1013.6
20260505063034 54 277 0.0 0.0 0.43 1.34 0.27 96 1013.7
20260505062538 53 277 0.0 0.0 0.43 1.30 0.26 95 1013.8
20260505062041 53 277 0.0 0.0 0.51 1.30 0.26 95 1013.8
20260505061603 53 277 0.0 0.0 0.55 1.30 0.26 95 1013.9
20260505061049 53 277 0.0 0.0 0.59 1.26 0.25 95 1013.9
20260505060532 53 277 0.0 0.0 0.63 1.26 0.25 95 1013.9
20260505060039 53 277 0.0 0.0 0.67 1.22 0.24 95 1014.0
20260505055540 53 277 0.0 0.0 0.75 1.22 0.24 95 1014.1
20260505055058 53 277 0.0 0.0 0.79 1.18 0.24 95 1014.1
20260505054542 53 277 0.0 0.0 0.75 1.10 0.22 95 1014.1
20260505054031 53 277 0.0 0.0 0.75 1.06 0.21 94 1014.0
20260505053536 53 277 0.0 0.0 0.67 0.94 0.19 94 1014.1
20260505053041 53 277 0.0 0.0 0.67 0.91 0.18 94 1014.0
20260505052541 53 277 0.0 0.0 0.63 0.87 0.17 94 1014.0
20260505052031 54 277 0.0 0.0 0.59 0.79 0.16 94 1014.0
20260505051554 54 277 0.0 0.0 0.59 0.75 0.15 93 1014.0
20260505051045 54 277 0.0 0.0 0.51 0.67 0.13 93 1014.0
20260505050610 54 277 0.0 0.0 0.43 0.59 0.12 93 1014.0
20260505041540 55 277 0.0 0.0 0.12 0.16 0.03 90 1013.9
20260505041030 55 277 0.0 0.0 0.12 0.16 0.03 89 1013.7
20260505040533 55 277 0.0 3.0 0.12 0.16 0.03 88 1013.7
20260505040046 55 294 0.0 3.0 0.08 0.12 0.02 87 1013.8
20260505035549 55 325 0.0 0.0 0.08 0.12 0.02 86 1013.7
20260505035039 55 325 0.0 0.0 0.04 0.08 0.02 86 1013.6
20260505034545 55 325 0.0 3.0 0.04 0.08 0.02 86 1013.7
20260505034057 55 325 0.0 3.0 0.04 0.08 0.02 86 1013.8
20260505033534 55 331 0.0 3.0 0.00 0.04 0.01 85 1013.7
20260505033039 55 331 0.0 0.0 0.00 0.04 0.01 85 1013.7
20260505032544 55 331 0.0 0.0 0.00 0.04 0.01 85 1013.7
20260505032042 55 331 0.0 0.0 0.00 0.04 0.01 85 1013.6
20260505031602 55 359 0.0 0.0 0.00 0.04 0.01 85 1013.6
20260505031035 55 359 0.0 0.0 0.00 0.04 0.01 84 1013.5
20260505030541 55 359 0.0 0.0 0.00 0.04 0.01 85 1013.5
20260505030053 55 10 0.0 0.0 0.00 0.04 0.01 83 1013.6
20260505025534 55 10 0.0 0.0 0.00 0.04 0.01 83 1013.7
20260505025044 55 10 0.0 0.0 0.00 0.04 0.01 84 1013.7
20260505024549 55 10 0.0 0.0 0.00 0.04 0.01 82 1013.8
20260505024059 55 10 0.0 0.0 0.00 0.04 0.01 82 1013.8
20260505023536 56 10 0.0 0.0 0.00 0.04 0.01 81 1013.9
20260505023044 56 10 0.0 0.0 0.00 0.04 0.01 80 1013.9
20260505022610 56 10 0.0 0.0 0.00 0.04 0.01 79 1013.9
20260505022043 56 10 0.0 0.0 0.00 0.04 0.01 77 1013.9
20260505021544 56 10 0.0 0.0 0.00 0.04 0.01 76 1014.0
20260505021119 56 10 0.0 0.0 0.00 0.04 0.01 76 1014.1
20260505020654 56 10 0.0 2.0 0.04 0.04 0.01 75 1014.0
20260505020044 56 10 0.0 7.0 0.04 0.04 0.01 75 1014.1
20260505015548 57 326 3.0 9.0 0.04 0.04 0.01 74 1014.1
20260505015040 56 321 5.0 11.0 0.04 0.04 0.01 74 1014.1
20260505014543 56 332 6.0 11.0 0.04 0.04 0.01 75 1014.3
20260505014031 56 292 7.0 10.0 0.04 0.04 0.01 76 1014.5
20260505013534 55 314 5.0 11.0 0.04 0.04 0.01 77 1014.6
20260505013039 56 331 8.0 12.0 0.04 0.04 0.01 77 1014.7
20260505012543 56 330 9.0 12.0 0.04 0.04 0.01 77 1014.7
20260505012057 56 318 6.0 11.0 0.04 0.04 0.01 75 1014.8
20260505011557 56 330 5.0 12.0 0.04 0.04 0.01 76 1015.0
20260505011038 56 311 5.0 12.0 0.04 0.04 0.01 76 1015.2
20260505010541 56 314 5.0 9.0 0.00 0.00 0.00 75 1015.3
20260505010050 56 312 5.0 8.0 0.00 0.00 0.00 75 1015.4
20260505005610 57 314 5.0 9.0 0.00 0.00 0.00 73 1015.6
20260505005056 58 317 5.0 9.0 0.00 0.00 0.00 71 1015.7
20260505004531 58 320 5.0 9.0 0.00 0.00 0.00 68 1015.8
20260505004056 58 321 6.0 9.0 0.00 0.00 0.00 66 1015.9
20260505003532 58 319 4.0 6.0 0.00 0.00 0.00 68 1016.0
20260505003040 57 304 2.0 5.0 0.00 0.00 0.00 70 1016.0
20260505002543 57 302 1.0 4.0 0.00 0.00 0.00 72 1016.0
20260505002045 58 302 0.0 1.0 0.00 0.00 0.00 72 1016.0
20260505001550 58 303 0.0 1.0 0.00 0.00 0.00 69 1016.0
20260505001033 58 302 0.0 3.0 0.00 0.00 0.00 69 1016.1
20260505000535 58 302 0.0 4.0 0.00 0.00 0.00 70 1016.1
20260505000034 58 302 0.0 2.0 0.00 0.00 0.00 70 1016.1
20260504235538 58 302 0.0 4.0 0.00 0.00 0.00 70 1016.2
20260504235047 58 302 1.0 4.0 0.00 0.00 0.00 69 1016.4
20260504234552 59 301 0.0 2.0 0.00 0.00 0.00 67 1016.5
20260504234045 59 313 0.0 0.0 0.00 0.00 0.00 65 1016.5
20260504233550 59 318 0.0 4.0 0.00 0.00 0.00 65 1016.5
20260504233041 59 318 2.0 4.0 0.00 0.00 0.00 66 1016.6
20260504232543 59 288 0.0 0.0 0.00 0.00 0.00 67 1016.8
20260504232119 59 288 0.0 0.0 0.00 0.00 0.00 65 1016.8
20260504231535 59 288 0.0 0.0 0.00 0.00 0.00 65 1016.9
20260504231050 59 288 0.0 0.0 0.00 0.00 0.00 65 1016.8
20260504230554 60 288 0.0 0.0 0.00 0.00 0.00 64 1016.8
20260504230044 60 288 0.0 0.0 0.00 0.00 0.00 63 1016.8
20260504225608 60 288 0.0 0.0 0.00 0.00 0.00 63 1016.8
20260504225038 59 288 0.0 0.0 0.00 0.00 0.00 64 1016.9
20260504224603 59 288 0.0 0.0 0.00 0.00 0.00 66 1016.9
20260504224058 59 288 0.0 0.0 0.00 0.00 0.00 64 1016.8
20260504223538 59 288 0.0 0.0 0.00 0.00 0.00 66 1016.8
20260504223058 59 288 0.0 0.0 0.00 0.00 0.00 66 1016.9
20260504222542 58 288 0.0 0.0 0.00 0.00 0.00 66 1016.8
20260504222055 58 288 0.0 0.0 0.00 0.00 0.00 67 1016.9
20260504221532 59 288 0.0 0.0 0.00 0.00 0.00 66 1016.8
20260504221040 59 288 0.0 0.0 0.00 0.00 0.00 66 1016.8
20260504220536 59 288 0.0 0.0 0.00 0.00 0.00 63 1016.9
20260504220048 59 289 0.0 0.0 0.00 0.00 0.00 64 1016.9
20260504215605 59 289 0.0 0.0 0.00 0.00 0.00 64 1016.9
20260504215104 59 289 0.0 0.0 0.00 0.00 0.00 63 1017.1
20260504214546 59 284 0.0 0.0 0.00 0.00 0.00 62 1017.1
20260504214037 59 284 0.0 0.0 0.00 0.00 0.00 62 1017.2
20260504213542 59 283 0.0 0.0 0.00 0.00 0.00 62 1017.3
20260504213103 59 283 0.0 0.0 0.00 0.00 0.00 64 1017.3
20260504212542 60 283 0.0 0.0 0.00 0.00 0.00 63 1017.3
20260504212055 60 283 0.0 0.0 0.00 0.00 0.00 63 1017.4
20260504211532 60 258 0.0 0.0 0.00 0.00 0.00 61 1017.4
20260504211044 61 258 0.0 0.0 0.00 0.00 0.00 61 1017.4
20260504210549 61 258 0.0 0.0 0.00 0.00 0.00 59 1017.4
20260504210038 61 264 0.0 0.0 0.00 0.00 0.00 57 1017.4
20260504205605 62 341 0.0 0.0 0.00 0.00 0.00 57 1017.5
20260504205035 62 347 0.0 0.0 0.00 0.00 0.00 56 1017.5
20260504204540 62 349 0.0 0.0 0.00 0.00 0.00 58 1017.4
20260504204030 62 349 0.0 0.0 0.00 0.00 0.00 56 1017.6
20260504203553 62 347 0.0 0.0 0.00 0.00 0.00 56 1017.7
20260504203046 62 347 0.0 0.0 0.00 0.00 0.00 56 1017.8
20260504202549 62 347 0.0 0.0 0.00 0.00 0.00 55 1017.8
20260504202036 63 347 0.0 0.0 0.00 0.00 0.00 55 1017.7
20260504201542 63 347 0.0 0.0 0.00 0.00 0.00 55 1017.7
20260504201031 63 345 0.0 0.0 0.00 0.00 0.00 53 1017.6
20260504200534 63 345 0.0 3.0 0.00 0.00 0.00 54 1017.4
20260504200042 63 345 1.0 3.0 0.00 0.00 0.00 54 1017.5
20260504195542 64 181 0.0 5.0 0.00 0.00 0.00 51 1017.4
20260504195034 65 193 0.0 5.0 0.00 0.00 0.00 50 1017.4
20260504194540 65 183 1.0 11.0 0.00 0.00 0.00 46 1017.3
20260504194101 65 64 4.0 15.0 0.00 0.00 0.00 46 1017.1
20260504193544 65 349 9.0 15.0 0.00 0.00 0.00 48 1017.1
20260504193053 64 324 10.0 14.0 0.00 0.00 0.00 49 1017.0
20260504192549 65 316 8.0 19.0 0.00 0.00 0.00 46 1016.9
20260504192039 64 327 11.0 19.0 0.00 0.00 0.00 50 1016.9
20260504191604 61 330 7.0 13.0 0.00 0.00 0.00 63 1017.1
20260504191058 61 298 1.0 4.0 0.00 0.00 0.00 65 1017.3
20260504190540 62 256 0.0 4.0 0.00 0.00 0.00 65 1017.3
20260504190034 62 259 1.0 4.0 0.00 0.00 0.00 65 1017.2
20260504185537 62 260 0.0 0.0 0.00 0.00 0.00 65 1017.1
20260504185036 62 316 0.0 8.0 0.00 0.00 0.00 61 1017.1
20260504184539 62 316 3.0 10.0 0.00 0.00 0.00 61 1017.0
20260504184039 62 311 3.0 10.0 0.00 0.00 0.00 65 1017.0
20260504183542 62 309 1.0 8.0 0.00 0.00 0.00 67 1017.0
20260504183104 62 309 1.0 4.0 0.00 0.00 0.00 68 1017.0
20260504182541 62 294 0.0 3.0 0.00 0.00 0.00 70 1017.0
20260504182055 62 286 0.0 3.0 0.00 0.00 0.00 68 1017.0
20260504181547 62 234 0.0 3.0 0.00 0.00 0.00 69 1017.0
20260504181037 62 283 0.0 1.0 0.00 0.00 0.00 69 1017.0
20260504180541 62 284 0.0 5.0 0.00 0.00 0.00 69 1016.9
20260504180034 62 251 1.0 7.0 0.00 0.00 0.00 70 1017.0
20260504175601 63 233 1.0 7.0 0.00 0.00 0.00 70 1016.9
20260504175033 63 224 2.0 4.0 0.00 0.00 0.00 70 1017.0
20260504174559 63 250 0.0 4.0 0.00 0.00 0.00 70 1016.9
20260504174044 63 245 1.0 4.0 0.00 0.00 0.00 70 1017.0
20260504173550 63 320 0.0 2.0 0.00 0.00 0.00 71 1017.0
20260504173105 63 326 0.0 0.0 0.00 0.00 0.00 72 1017.0
20260504172550 63 326 0.0 0.0 0.00 0.00 0.00 73 1017.0
20260504172108 63 326 0.0 0.0 0.00 0.00 0.00 73 1017.0
20260504171611 63 326 0.0 0.0 0.00 0.00 0.00 75 1016.9
20260504171042 63 326 0.0 0.0 0.00 0.00 0.00 74 1017.0
20260504170547 63 326 0.0 0.0 0.00 0.00 0.00 72 1017.0